Погода в Батове

Россия / Ханты-Мансийский автономный округ - Югра     60°24′23″N   69°49′59″E
темп.,
°C
ветер,
м/с
пор.,
м/с
влажн.,
%
обл.,
%
осадки,
мм/ч
давл.,
гПа
погр.,
м
1 марта, пн
пн123:00−25в34980 0.0 102166
02:00−26в33980 0.0 102042
05:00−27в33970 0.0 102033
08:00−28в23960 0.0 102040
11:00−21в24890 0.0 1019240
14:00−16в13790 0.0 1018371
17:00−18всв11910 0.0 101820
20:00−22юв23970 0.0 101620
2 марта, вт
вт223:00−23ю33980 0.0 101628
02:00−24ю3310032 0.0 101532
05:00−24ю3410051 0.0 101462
08:00−24ю479887 0.0 1012140
11:00−18ю599381 0.0 1011297
14:00−14ю5109091 0.0 1009439
17:00−13ю5119195 0.0 1007484
20:00−14ю61293100 0.0 1006426
3 марта, ср
ср323:00−15ю61293100 0.1 1005436
02:00−16ю51194100 0.1 1003386
05:00−16ю51294100 0.1 1002354
08:00−16ю61193100 0.0 1001424
11:00−14ю61193100 0.3 1000501
14:00−12ю61090100 0.4 999607
17:00−12ю51091100 0.6 999685
20:00−12ю51094100 0.3 999548
4 марта, чт
чт423:00−12ю41093100 0.7 998382
02:00−11ю499498 0.2 997265
05:00−11ю489594 0.3 998178
08:00−11ю379693 0.1 997176
11:00−7ю359396 0.2 997311
14:00−4ю3592100 0.4 996435
17:00−4ю2297100 0.8 99669
20:00−5ююз2397100 0.4 99554
5 марта, пт
пт523:00−7юз2397100 0.5 99528
02:00−8юз2397100 0.1 99534
05:00−12юз339790 0.1 99632
08:00−14ююз349748 0.0 99677
11:00−9ююз489172 0.0 995358
14:00−7ююв4893100 0.3 994628
17:00−6ю4892100 1.0 992716
20:00−8юв3695100 0.4 990275